STARLINK-33787, 63519

Orbit data source: Space-Track

STARLINK-33787, 63519 is a payload satellite owned by SpaceX/Seattle (US) in LEO that was launched on Mon, 07 Apr 2025 UTC via an FALCON 9 launch vehicle from the Air Force Western Test Range (AFWTR). Payload-class satellites include a variety of spacecraft equipped with specific instruments for various scientific and technological missions. These include communications satellites like Starlink; space stations such as the ISS; scientific satellites like the Hubble; Earth observation satellites from companies like Planet Labs, Umbra, and HawkEye 360; GPS; miniature CubeSats for education and research; and military/defense satellites.

Loading next visibility...
Identifier
63519, 2025-071AC
Orbit
LEO
Country
Flag of USUS
Related business
Manufacturer
SpaceX/Seattle
Mission
Operational Commercial Communications
Bus & Motor
STARLINK V2MO, Unknown motor
Mass
575 kg wet, ~530 kg dry
Launch date (UTC)
2025-04-07 (11 months ago)
Launch vehicle
FALCON 9
Launch site
Air Force Western Test Range (AFWTR)
Object type
Payload
Rocket body
Debris
Shape & HBR
Box + 2 Pan, 17.7 m
Radar Cross Section
36.964 m², Large (>1 m²)

Expand to show TLE details & history
Last TLE update: 7 hours ago

TLE from 7 hours ago
0 STARLINK-33787
1 63519U 25071AC  26072.58030827  .00029752  00000-0  10122-2 0  9992
2 63519  53.1586 124.0841 0000470 149.2711 210.8317 15.30215001 52962
Epoch: 2026-03-13T13:55Z
TLE epoch observation values (Epoch: 2026-03-13T13:55:38.634Z)
Latitude
-0.00005°
Longitude
103.95929°
Altitude
476.346 km
Speed
7.629 km/s
True Right ascension
08h 16m 20s
True Declination
0° 00' 00"
Sunlit
Object was in full shadow at epoch
Visualization orbit readout
Latitude
Unknown
Longitude
Unknown
Altitude
Unknown
Speed
Unknown
Apparent Right ascension
Unknown
Apparent Declination
Unknown
Sunlit
N/A
Visualization observer readout
Local Sidereal Time
00:59:50
Azimuth
Unknown
Elevation
Unknown
Doppler factor
Unknown
Orbital elements
Apogee altitude
475.749 km
Perigee altitude
475.105 km
Semi-major axis
6,853.564 km
Eccentricity
0.00005
Inclination
53.1586°
RAAN
124.0841°
Arg. of periapsis
149.2711°
True anomaly
210.82894°
Mean anomaly
210.8317°
Eccentric anomaly
210.83032°
Mean motion
3.82533 °/min
Orbital period
94.11 mins
BSTAR
0.0010122
Loading maneuver chart data...
Computing Atmospheric mass density...
Loading historical data...
Loading historical data...
Loading historical data...
Loading historical data...
Loading historical data...
Loading historical data...
Loading historical data...

Documentation

Showing up to 5 results
|